{"data":{"norad_id":64116,"epoch":"2026-09-20T18:16:22.680768Z","epoch_age_seconds":117845,"freshness":"FRESH","line1":"1 64116U 25110W   26263.76137362  .00020618  00000+0  67392-3 0  9997","line2":"2 64116  53.1569 198.9130 0002537  82.8455 277.2835 15.31718705 75766","mean_motion":15.31718705,"eccentricity":0.0002537,"inclination_deg":53.1569,"raan_deg":198.913,"arg_perigee_deg":82.8455,"mean_anomaly_deg":277.2835,"bstar":0.00067392,"rev_number":7576,"period_min":94.012039893448,"perigee_km":468.94669121354,"apogee_km":472.42178310927,"semimajor_km":6848.8212371614,"source":"CELESTRAK","updated_at":"2026-09-21T09:00:35.230727Z"}}